Wind_Speed
18 18 18 18 18 18 18 18 18 16 16 15 16 17 17 17 17 17 17 17 17 16 16 16 15 16 16 15 15 16 16 15 15 16 16 16 16 17 17 17 17 17 17 16
20 19 20 20 19 19 19 19 19 18 16 16 17 17 18 18 18 18 17 17 17 17 17 17 16 16 16 16 16 16 16 16 16 16 17 17 17 17 17 17 18 18 18 17
20 21 22 20 18 19 20 19 20 19 18 18 18 18 18 19 19 18 18 17 18 18 18 17 17 17 17 17 17 17 17 17 17 17 18 18 18 18 18 18 18 18 18 18
23 23 23 20 20 20 21 21 21 21 20 20 19 19 19 19 19 18 18 18 18 18 18 18 18 18 18 19 19 19 18 18 18 18 19 19 19 19 19 19 19 19 19 18
26 26 24 21 21 21 22 21 21 22 21 21 20 20 20 19 19 19 18 19 19 19 19 19 20 20 20 20 20 20 20 19 19 20 20 19 19 19 19 19 19 20 20 20
27 28 26 22 22 22 23 22 21 22 22 22 22 21 20 21 21 21 20 20 21 21 21 21 21 22 22 22 21 22 21 21 21 20 20 20 20 20 20 20 20 20 20 20
28 28 27 24 23 23 23 21 21 22 23 23 23 22 22 22 22 22 22 22 22 22 22 22 23 23 23 23 23 22 22 22 22 22 22 21 21 21 21 21 21 21 21 21
29 29 27 25 24 24 23 23 23 23 24 24 24 24 23 23 23 23 23 23 23 24 24 24 24 24 24 24 24 23 23 23 23 23 22 22 22 22 22 22 22 22 22 22
31 29 28 27 26 26 25 25 25 25 25 26 26 26 25 25 24 24 24 25 25 25 25 24 25 25 24 24 24 23 24 24 24 24 24 23 23 23 24 24 24 23 23 23
31 30 28 28 28 27 27 26 26 26 26 26 26 26 26 26 26 26 26 26 26 25 25 24 25 25 25 24 24 24 25 25 25 25 25 24 24 24 24 25 25 25 24 25
32 30 30 29 29 29 29 29 28 28 28 27 27 26 27 27 27 27 27 26 26 26 26 25 25 25 25 25 25 25 25 24 25 25 25 25 25 25 25 26 26 26 26 26
33 32 32 32 31 31 31 30 30 29 29 28 28 28 27 27 27 27 27 26 26 26 26 26 26 26 26 26 26 26 25 25 25 26 26 26 26 26 26 27 27 28 28 29
34 34 34 33 33 32 32 32 31 30 30 29 28 28 28 27 27 27 27 27 27 27 27 27 26 26 26 26 26 26 26 26 26 26 27 27 28 28 28 29 29 30 30 30
35 35 35 35 34 34 33 33 33 32 31 30 30 29 29 28 27 28 28 27 28 28 28 27 27 27 26 26 27 27 27 27 27 27 27 28 28 28 28 29 30 31 32 32
35 36 35 35 35 35 34 34 34 33 33 32 31 31 31 30 29 29 28 28 28 28 28 28 28 27 27 27 27 26 26 26 27 27 28 29 29 29 29 29 30 31 32 33
36 36 35 34 34 34 34 34 34 33 33 33 32 32 31 31 30 30 29 29 29 29 28 28 28 28 28 28 28 28 28 28 28 28 29 29 30 30 30 31 31 32 32 33
37 36 36 35 34 34 34 34 34 34 34 34 33 33 33 32 31 31 31 31 30 30 30 30 30 29 29 29 29 29 29 29 29 29 30 30 31 31 32 32 33 33 33 34
37 36 35 35 35 34 34 34 35 35 34 34 34 34 34 34 34 33 33 32 32 31 31 31 31 31 30 30 30 30 30 30 30 30 31 31 32 33 33 34 34 35 35 36
35 36 36 35 34 34 34 34 34 34 35 35 35 35 34 34 34 34 34 34 33 33 33 32 32 32 32 31 31 32 32 32 32 32 33 33 33 34 35 35 36 36 36 36
34 35 35 35 34 34 34 34 34 33 33 34 34 35 34 34 35 35 35 35 34 34 35 34 34 34 34 33 33 33 34 34 35 35 35 35 35 36 36 36 37 37 37 38
34 34 34 34 34 33 33 33 33 33 33 33 34 34 34 34 34 35 35 36 35 36 36 36 35 35 35 36 36 35 36 36 36 37 37 37 37 37 37 37 37 37 37 38
34 33 33 33 33 33 33 33 33 33 33 33 33 33 34 34 35 36 36 36 36 36 36 37 36 36 36 36 36 36 36 37 37 37 37 37 38 38 38 38 38 38 38 39
34 34 33 33 33 33 33 33 33 33 33 33 33 33 34 34 35 36 36 36 37 37 37 36 36 36 36 36 36 37 37 37 37 37 37 37 38 38 38 39 39 40 40 41
33 34 34 34 34 33 33 33 33 34 34 34 33 33 34 34 35 36 36 36 36 36 37 37 37 36 36 36 37 37 37 37 37 37 37 38 38 38 39 40 40 41 41 41
33 34 34 35 34 34 34 34 34 34 33 34 34 34 35 35 35 35 35 35 35 36 37 37 37 37 37 37 37 38 37 38 37 37 38 38 38 39 40 40 41 42 42 42
33 33 34 34 35 35 35 35 35 34 34 35 35 35 35 35 35 35 35 35 36 37 37 37 38 38 38 38 38 38 38 39 38 39 39 39 39 40 40 41 41 42 42 41
33 33 34 34 34 35 35 35 35 35 35 35 35 35 34 34 34 35 36 36 37 37 37 38 38 38 38 38 38 39 39 39 39 39 40 40 40 41 41 41 42 42 42 42
Wind_Direction
264 266 267 268 269 272 275 278 280 283 284 286 286 287 288 289 288 287 286 285 286 286 287 288 290 291 292 289 291 291 290 288 286 284 282 281 281 280 277 277 277 278 281 282
265 266 267 267 268 271 274 277 280 281 282 283 284 285 287 289 289 287 285 285 284 284 285 286 287 287 288 288 290 290 290 289 287 286 285 283 281 280 278 276 276 279 280 280
266 265 266 267 269 270 273 275 278 280 282 281 283 285 287 289 290 289 284 284 284 284 285 286 285 285 286 286 287 289 290 289 287 285 284 284 282 279 278 277 276 277 278 280
267 267 267 270 269 271 273 274 276 280 281 281 281 282 284 286 287 287 285 283 283 284 284 283 283 283 283 284 285 287 288 288 286 284 282 282 282 280 278 277 276 277 278 281
265 267 269 268 270 271 272 272 274 276 279 279 280 281 284 284 284 284 283 282 281 281 282 282 282 282 283 285 286 286 286 286 285 284 283 281 281 279 277 277 277 279 279 281
265 267 269 269 270 270 271 272 273 274 276 277 279 280 281 280 280 280 280 281 281 281 282 282 283 283 283 284 285 286 286 286 285 284 282 280 279 277 277 277 278 280 281 281
263 266 268 269 270 271 271 273 271 271 273 275 277 279 280 280 280 280 280 281 282 283 283 284 283 284 284 284 284 284 284 285 284 283 281 279 279 277 276 277 279 280 281 282
262 264 266 269 270 270 271 271 271 271 272 274 276 278 279 280 280 280 280 281 283 283 283 283 284 284 284 284 284 283 283 283 283 281 280 279 278 277 276 277 279 281 282 283
262 264 266 267 268 269 271 272 272 272 273 274 275 277 279 279 280 280 280 281 282 283 284 285 285 284 282 283 283 283 283 282 281 279 279 277 276 275 275 277 279 280 280 281
262 263 264 265 265 267 269 270 272 273 273 275 276 276 277 279 280 280 281 281 282 283 284 285 285 285 283 283 282 283 282 281 280 279 279 278 277 277 277 278 278 279 280 280
262 262 263 263 264 265 266 269 270 272 274 274 275 276 276 276 278 279 280 280 281 281 282 284 285 285 284 283 283 283 284 282 280 278 277 278 279 279 280 281 279 279 279 280
260 261 261 261 263 264 266 269 270 271 273 274 275 276 277 276 277 278 278 279 281 281 282 284 285 285 283 282 282 282 284 284 282 280 278 278 278 279 280 281 281 281 282 283
259 259 259 260 261 263 266 267 268 270 272 273 274 276 276 276 276 276 277 279 281 281 281 282 284 285 285 284 284 283 283 283 283 282 280 280 279 280 280 281 282 281 282 283
258 259 259 260 260 261 263 265 266 268 270 271 273 274 274 274 275 274 276 278 279 279 280 281 283 284 285 284 285 284 283 281 281 282 282 281 281 281 281 282 282 283 283 283
258 259 259 261 261 262 262 263 264 266 268 269 270 272 272 272 272 272 274 277 278 279 279 281 282 283 284 283 284 285 284 283 281 281 281 282 282 283 284 284 284 283 283 284
258 258 260 262 262 263 263 263 264 265 265 265 267 269 270 271 271 272 274 275 277 280 281 282 283 283 284 284 284 284 284 284 283 283 283 283 283 285 285 285 285 284 284 285
257 257 259 260 262 263 263 263 264 265 265 265 267 268 268 269 269 271 272 274 276 279 281 282 282 282 282 283 285 285 284 284 284 284 284 284 284 284 285 285 285 286 286 286
257 257 259 261 262 262 262 263 263 264 265 266 267 269 270 270 270 270 271 272 274 277 280 281 281 281 282 282 283 284 284 284 284 283 283 284 284 284 284 284 285 286 286 286
256 257 258 261 262 262 262 262 263 264 265 266 267 268 269 271 271 270 270 272 274 276 278 278 278 279 281 282 283 284 284 284 284 284 284 284 285 285 286 286 286 286 287 287
256 258 259 260 261 261 261 262 264 265 266 267 267 268 268 271 272 272 273 273 274 276 277 278 278 279 280 282 284 284 285 285 284 284 284 284 285 286 286 287 287 288 288 289
258 259 260 260 261 261 262 263 264 265 266 267 268 268 269 269 271 272 273 273 274 276 277 279 279 279 280 281 282 284 284 285 285 284 283 284 284 286 287 288 289 289 289 289
257 259 260 261 261 261 262 264 265 266 267 268 269 270 271 271 271 273 275 275 275 276 277 279 279 280 280 281 282 283 284 285 285 285 284 284 284 284 285 287 288 289 289 289
259 259 261 262 262 262 262 263 264 265 266 268 270 271 271 272 271 272 274 276 278 278 278 279 279 280 281 281 281 283 284 284 285 285 285 285 285 285 285 287 288 288 289 289
259 259 260 261 262 262 263 264 265 265 266 268 269 271 272 273 273 273 275 276 277 277 278 279 279 280 280 281 282 283 284 284 285 285 285 285 286 286 287 288 289 289 290 290
259 260 261 261 261 262 263 265 266 266 266 268 270 272 273 274 275 276 276 276 276 277 278 279 280 280 281 281 282 282 283 284 284 284 284 286 287 287 288 288 289 289 289 290
262 262 263 263 262 262 264 265 266 265 266 268 270 272 273 274 275 275 276 277 278 278 279 279 279 280 281 282 282 282 282 283 283 284 285 286 286 287 288 289 289 290 291 291
263 263 263 264 264 264 264 265 264 265 267 269 270 271 272 273 276 277 277 278 278 279 279 279 280 280 281 281 281 282 283 283 283 283 284 285 286 288 289 289 290 291 291 291
Height
5834 5835 5835 5835 5836 5835 5835 5835 5835 5835 5834 5834 5832 5831 5830 5829 5828 5827 5825 5824 5823 5822 5821 5820 5819 5817 5816 5815 5813 5812 5811 5810 5809 5808 5807 5806 5805 5804 5803 5802 5802 5802 5801 5800
5830 5830 5830 5830 5831 5831 5831 5830 5830 5830 5830 5829 5828 5827 5826 5824 5823 5822 5821 5820 5818 5817 5816 5815 5814 5813 5812 5810 5809 5808 5806 5805 5804 5802 5801 5800 5800 5799 5798 5798 5797 5797 5796 5795
5824 5825 5824 5826 5827 5826 5826 5826 5826 5825 5826 5824 5823 5822 5821 5819 5818 5817 5816 5815 5814 5813 5812 5810 5809 5808 5807 5806 5804 5803 5801 5800 5798 5797 5796 5795 5794 5794 5793 5793 5792 5792 5791 5791
5818 5819 5819 5824 5822 5822 5821 5821 5821 5820 5820 5819 5818 5817 5815 5814 5813 5812 5811 5810 5809 5808 5806 5805 5804 5803 5802 5800 5799 5798 5796 5794 5793 5791 5790 5789 5789 5788 5788 5787 5787 5787 5786 5785
5812 5812 5813 5817 5817 5816 5815 5816 5815 5814 5814 5813 5812 5811 5810 5809 5808 5807 5806 5805 5803 5802 5801 5800 5798 5797 5796 5795 5793 5791 5790 5788 5787 5786 5784 5784 5783 5782 5782 5782 5782 5781 5780 5779
5806 5805 5807 5811 5811 5809 5810 5810 5810 5808 5807 5807 5806 5806 5806 5804 5802 5801 5800 5799 5797 5796 5795 5794 5792 5791 5790 5788 5787 5785 5783 5782 5781 5780 5778 5778 5777 5777 5777 5776 5776 5775 5774 5774
5799 5798 5800 5803 5803 5803 5804 5805 5803 5802 5801 5801 5800 5799 5799 5797 5796 5795 5793 5792 5791 5790 5789 5787 5786 5784 5783 5782 5780 5779 5777 5775 5774 5773 5772 5771 5771 5771 5770 5770 5770 5769 5768 5767
5792 5792 5796 5796 5796 5796 5797 5796 5796 5795 5795 5794 5793 5792 5792 5791 5789 5788 5787 5786 5784 5783 5782 5780 5779 5777 5776 5774 5773 5771 5770 5768 5767 5766 5765 5765 5764 5764 5764 5763 5763 5762 5762 5761
5785 5787 5788 5788 5788 5788 5788 5789 5788 5788 5788 5787 5786 5786 5785 5784 5783 5781 5780 5779 5777 5776 5774 5773 5772 5770 5769 5767 5766 5764 5763 5761 5759 5758 5758 5757 5757 5757 5757 5756 5756 5755 5755 5754
5776 5778 5779 5779 5779 5780 5780 5780 5780 5780 5780 5779 5778 5778 5777 5776 5775 5774 5773 5771 5770 5768 5767 5766 5764 5763 5761 5760 5758 5757 5755 5753 5751 5750 5749 5750 5749 5749 5749 5749 5748 5748 5747 5746
5767 5769 5770 5770 5770 5771 5771 5771 5771 5771 5771 5771 5770 5770 5769 5768 5767 5766 5765 5764 5762 5761 5760 5758 5757 5755 5753 5752 5750 5749 5747 5745 5743 5742 5742 5742 5742 5742 5741 5741 5740 5740 5739 5738
5758 5760 5760 5761 5762 5762 5762 5763 5763 5763 5763 5762 5762 5761 5761 5760 5758 5757 5757 5756 5754 5753 5752 5751 5749 5747 5745 5744 5743 5741 5740 5738 5737 5735 5735 5734 5734 5734 5733 5733 5732 5732 5731 5730
5748 5749 5750 5751 5752 5753 5753 5753 5754 5754 5754 5754 5753 5753 5752 5751 5750 5749 5748 5748 5746 5745 5744 5743 5741 5740 5738 5736 5735 5733 5732 5731 5729 5728 5727 5727 5726 5726 5725 5724 5723 5723 5722 5721
5737 5738 5739 5741 5742 5743 5743 5744 5744 5744 5744 5744 5744 5744 5743 5743 5742 5741 5740 5739 5738 5737 5736 5735 5734 5732 5730 5729 5727 5725 5724 5723 5722 5721 5720 5719 5718 5717 5716 5716 5715 5714 5713 5711
5726 5727 5729 5730 5731 5732 5733 5733 5734 5735 5735 5735 5735 5735 5734 5734 5733 5733 5732 5731 5730 5729 5728 5726 5725 5724 5722 5721 5719 5717 5716 5715 5714 5713 5712 5711 5710 5709 5708 5706 5705 5704 5703 5701
5715 5716 5717 5719 5721 5722 5723 5723 5724 5725 5725 5725 5725 5725 5725 5724 5724 5724 5723 5722 5721 5720 5719 5718 5717 5715 5714 5713 5711 5710 5708 5707 5705 5704 5703 5702 5701 5700 5698 5697 5696 5694 5693 5691
5703 5705 5707 5709 5710 5711 5712 5713 5713 5714 5714 5715 5715 5715 5715 5715 5715 5714 5714 5713 5713 5712 5711 5709 5708 5706 5705 5704 5703 5701 5699 5698 5697 5695 5694 5693 5692 5690 5689 5688 5686 5684 5683 5681
5693 5695 5696 5698 5699 5700 5701 5702 5702 5703 5704 5704 5705 5705 5705 5705 5705 5704 5704 5704 5703 5702 5701 5700 5699 5697 5696 5695 5693 5692 5691 5689 5688 5686 5685 5683 5682 5680 5679 5677 5676 5674 5672 5669
5682 5684 5686 5687 5688 5689 5690 5691 5691 5692 5693 5693 5694 5694 5694 5694 5694 5694 5694 5693 5693 5692 5692 5690 5689 5688 5686 5685 5684 5682 5681 5679 5678 5676 5675 5673 5672 5670 5668 5666 5664 5662 5660 5658
5672 5673 5675 5676 5677 5678 5679 5680 5681 5681 5682 5682 5683 5683 5683 5683 5683 5683 5683 5682 5682 5681 5681 5679 5678 5677 5676 5675 5673 5672 5670 5669 5667 5666 5664 5663 5661 5659 5657 5655 5653 5651 5648 5646
5661 5663 5664 5666 5667 5668 5669 5669 5670 5671 5672 5672 5672 5672 5672 5672 5672 5672 5671 5672 5671 5670 5669 5668 5667 5666 5665 5664 5662 5661 5659 5658 5656 5654 5653 5651 5650 5648 5646 5643 5641 5639 5636 5634
5651 5652 5654 5655 5656 5657 5658 5659 5660 5660 5661 5661 5661 5661 5661 5661 5661 5661 5660 5660 5659 5658 5657 5656 5656 5655 5653 5652 5651 5649 5648 5646 5644 5643 5641 5639 5638 5636 5634 5632 5629 5627 5624 5621
5641 5642 5643 5645 5646 5647 5648 5648 5649 5649 5650 5650 5650 5650 5650 5650 5649 5649 5649 5649 5647 5647 5645 5645 5644 5643 5641 5640 5639 5638 5636 5634 5632 5631 5629 5627 5626 5624 5622 5620 5617 5614 5611 5609
5630 5631 5633 5634 5635 5636 5637 5638 5638 5638 5639 5639 5639 5639 5638 5638 5638 5638 5637 5636 5635 5634 5634 5633 5632 5631 5629 5628 5627 5626 5624 5622 5621 5619 5617 5615 5613 5611 5609 5607 5604 5602 5599 5596
5619 5621 5622 5623 5624 5625 5626 5627 5627 5627 5628 5628 5628 5628 5627 5627 5627 5626 5625 5624 5624 5623 5622 5621 5620 5619 5618 5616 5615 5613 5612 5610 5608 5607 5605 5603 5601 5599 5596 5594 5591 5588 5586 5582
5609 5610 5611 5612 5612 5614 5615 5615 5616 5616 5617 5617 5617 5617 5616 5616 5615 5615 5614 5613 5612 5611 5610 5609 5608 5607 5605 5604 5602 5601 5599 5598 5596 5594 5592 5591 5588 5586 5584 5581 5578 5575 5572 5569
5599 5599 5600 5600 5601 5602 5603 5603 5604 5605 5605 5606 5606 5605 5605 5604 5604 5603 5602 5601 5600 5599 5598 5596 5595 5594 5592 5591 5589 5588 5586 5585 5583 5582 5580 5578 5576 5573 5571 5568 5565 5562 5559 5556